スペースウォッチ彗星

379P/Spacewatch (2006)

English version
Home page
Updated on May 27, 2019

---------------------------------------------------------------------

・ プロフィール

符号 379P/2006 F4
発見日 2006年3月26日
発見光度 19.9等
発見者 Spacewatch program

・ 軌道要素

Epoch 2006 Apr. 15.0 TT = JDT 2453840.5
T 2006 May 3.61402 TT                                   MPCW
q   2.3396068            (2000.0)            P               Q
n   0.14866777     Peri.   31.38854     -0.81514725     +0.57905128
a   3.5290529      Node   184.09505     -0.56591345     -0.80173766
e   0.3370440      Incl.   12.38471     -0.12359989     -0.14804165
P   6.63
From 55 observations 2006 Mar. 26-2019 Apr. 3, mean residual 0".6.

・ 光度変化

        m1 = 15.0 + 5 logΔ + 10.0 log r

---------------------------------------------------------------------

軌道要素はM.P.E.C. 2019-G21に掲載されたものです。
光度グラフはComet for Windowsで作成したものです。

---------------------------------------------------------------------

Copyright(C) Seiichi Yoshida (comet@aerith.net). All rights reserved.